Time,TemperatureF,DewpointF,PressureIn,WindDirection,WindDirectionDegrees,WindSpeedMPH,WindSpeedGustMPH,Humidity,HourlyPrecipIn,Conditions,Clouds,dailyrainin,SolarRadiationWatts/m^2,SoftwareType,DateUTC
2013-03-13 00:08:00,58.5,21.0,30.13,ESE,121,2.0,16.0,23,0.00,,,0.00,0,weatherlink.com 1.10,2013-03-13 06:08:00,
2013-03-13 00:23:00,57.9,20.0,30.13,SE,128,2.0,7.0,23,0.00,,,0.00,0,weatherlink.com 1.10,2013-03-13 06:23:00,
2013-03-13 00:38:00,57.3,21.0,30.13,SE,128,4.0,9.0,24,0.00,,,0.00,0,weatherlink.com 1.10,2013-03-13 06:38:00,
2013-03-13 00:53:00,58.1,21.0,30.13,SE,127,9.0,14.0,24,0.00,,,0.00,0,weatherlink.com 1.10,2013-03-13 06:53:00,
2013-03-13 01:08:00,57.7,21.0,30.13,SE,139,13.0,14.0,24,0.00,,,0.00,0,weatherlink.com 1.10,2013-03-13 07:08:00,
2013-03-13 01:23:00,58.2,21.0,30.13,SE,131,6.0,15.0,24,0.00,,,0.00,0,weatherlink.com 1.10,2013-03-13 07:23:00,
2013-03-13 01:38:00,58.3,21.0,30.13,SE,141,8.0,14.0,24,0.00,,,0.00,0,weatherlink.com 1.10,2013-03-13 07:38:00,
2013-03-13 01:53:00,58.4,22.0,30.14,SE,140,9.0,17.0,24,0.00,,,0.00,0,weatherlink.com 1.10,2013-03-13 07:53:00,
2013-03-13 02:08:00,58.3,21.0,30.13,SE,141,9.0,15.0,24,0.00,,,0.00,0,weatherlink.com 1.10,2013-03-13 08:08:00,
2013-03-13 02:23:00,58.0,21.0,30.13,SE,141,14.0,18.0,24,0.00,,,0.00,0,weatherlink.com 1.10,2013-03-13 08:23:00,
2013-03-13 02:38:00,57.7,21.0,30.14,SE,140,7.0,14.0,24,0.00,,,0.00,0,weatherlink.com 1.10,2013-03-13 08:38:00,
2013-03-13 02:54:00,58.1,21.0,30.14,SE,126,3.0,13.0,24,0.00,,,0.00,0,weatherlink.com 1.10,2013-03-13 08:54:00,
2013-03-13 03:08:00,55.5,20.0,30.14,ESE,115,0.0,4.0,25,0.00,,,0.00,0,weatherlink.com 1.10,2013-03-13 09:08:00,
2013-03-13 03:23:00,52.3,20.0,30.13,East,95,0.0,5.0,28,0.00,,,0.00,0,weatherlink.com 1.10,2013-03-13 09:23:00,
2013-03-13 03:39:00,51.4,20.0,30.14,East,95,1.0,7.0,29,0.00,,,0.00,0,weatherlink.com 1.10,2013-03-13 09:39:00,
2013-03-13 03:54:00,50.8,20.0,30.14,ENE,73,3.0,7.0,30,0.00,,,0.00,0,weatherlink.com 1.10,2013-03-13 09:54:00,
2013-03-13 04:09:00,50.0,20.0,30.13,NE,45,2.0,8.0,31,0.00,,,0.00,0,weatherlink.com 1.10,2013-03-13 10:09:00,
2013-03-13 04:24:00,49.3,21.0,30.13,NE,44,3.0,8.0,33,0.00,,,0.00,0,weatherlink.com 1.10,2013-03-13 10:24:00,
2013-03-13 04:39:00,48.5,21.0,30.13,NE,35,5.0,7.0,34,0.00,,,0.00,0,weatherlink.com 1.10,2013-03-13 10:39:00,
2013-03-13 04:54:00,48.1,21.0,30.14,NE,35,6.0,7.0,34,0.00,,,0.00,0,weatherlink.com 1.10,2013-03-13 10:54:00,
2013-03-13 05:09:00,48.9,21.0,30.14,NNE,33,4.0,5.0,33,0.00,,,0.00,0,weatherlink.com 1.10,2013-03-13 11:09:00,
2013-03-13 05:24:00,47.7,20.0,30.15,NNE,33,1.0,2.0,34,0.00,,,0.00,0,weatherlink.com 1.10,2013-03-13 11:24:00,
2013-03-13 05:39:00,47.4,19.0,30.16,NE,37,7.0,8.0,33,0.00,,,0.00,0,weatherlink.com 1.10,2013-03-13 11:39:00,
2013-03-13 05:54:00,47.5,20.0,30.16,NE,46,6.0,7.0,34,0.00,,,0.00,0,weatherlink.com 1.10,2013-03-13 11:54:00,
2013-03-13 06:09:00,48.9,21.0,30.16,NE,51,5.0,9.0,33,0.00,,,0.00,0,weatherlink.com 1.10,2013-03-13 12:09:00,
2013-03-13 06:24:00,48.1,19.0,30.16,NE,52,4.0,5.0,32,0.00,,,0.00,0,weatherlink.com 1.10,2013-03-13 12:24:00,
2013-03-13 06:39:00,47.2,19.0,30.17,NE,52,2.0,4.0,32,0.00,,,0.00,0,weatherlink.com 1.10,2013-03-13 12:39:00,
2013-03-13 06:54:00,46.8,20.0,30.18,NE,52,4.0,5.0,34,0.00,,,0.00,0,weatherlink.com 1.10,2013-03-13 12:54:00,
2013-03-13 07:09:00,49.2,20.0,30.18,NE,48,6.0,10.0,31,0.00,,,0.00,0,weatherlink.com 1.10,2013-03-13 13:09:00,
2013-03-13 07:24:00,48.7,18.0,30.19,NE,56,7.0,9.0,30,0.00,,,0.00,7,weatherlink.com 1.10,2013-03-13 13:24:00,
2013-03-13 07:39:00,48.4,20.0,30.19,NE,56,7.0,8.0,32,0.00,,,0.00,14,weatherlink.com 1.10,2013-03-13 13:39:00,
2013-03-13 07:54:00,47.9,20.0,30.19,NE,55,4.0,9.0,33,0.00,,,0.00,54,weatherlink.com 1.10,2013-03-13 13:54:00,
2013-03-13 08:09:00,50.6,21.0,30.19,ENE,62,0.0,9.0,31,0.00,,,0.00,23,weatherlink.com 1.10,2013-03-13 14:09:00,
2013-03-13 08:24:00,53.2,22.0,30.19,ENE,62,0.0,0.0,29,0.00,,,0.00,171,weatherlink.com 1.10,2013-03-13 14:24:00,
2013-03-13 08:39:00,55.3,22.0,30.20,ENE,62,3.0,3.0,27,0.00,,,0.00,230,weatherlink.com 1.10,2013-03-13 14:39:00,
2013-03-13 08:54:00,56.1,22.0,30.20,ENE,74,4.0,5.0,27,0.00,,,0.00,283,weatherlink.com 1.10,2013-03-13 14:54:00,
2013-03-13 09:09:00,56.7,22.0,30.21,ENE,74,4.0,5.0,26,0.00,,,0.00,338,weatherlink.com 1.10,2013-03-13 15:09:00,
2013-03-13 09:25:00,56.8,22.0,30.21,ENE,74,4.0,7.0,26,0.00,,,0.00,392,weatherlink.com 1.10,2013-03-13 15:25:00,
2013-03-13 09:40:00,57.3,22.0,30.21,East,98,3.0,7.0,26,0.00,,,0.00,443,weatherlink.com 1.10,2013-03-13 15:40:00,
2013-03-13 09:55:00,58.0,23.0,30.21,SE,126,7.0,8.0,26,0.00,,,0.00,494,weatherlink.com 1.10,2013-03-13 15:55:00,
2013-03-13 10:10:00,58.5,24.0,30.21,SE,146,3.0,7.0,26,0.00,,,0.00,541,weatherlink.com 1.10,2013-03-13 16:10:00,
2013-03-13 10:25:00,58.6,23.0,30.21,SSE,162,2.0,7.0,25,0.00,,,0.00,585,weatherlink.com 1.10,2013-03-13 16:25:00,
2013-03-13 10:40:00,59.5,23.0,30.21,South,188,5.0,5.0,25,0.00,,,0.00,629,weatherlink.com 1.10,2013-03-13 16:40:00,
2013-03-13 10:55:00,61.1,24.0,30.21,South,188,2.0,6.0,24,0.00,,,0.00,668,weatherlink.com 1.10,2013-03-13 16:55:00,
2013-03-13 11:10:00,62.8,24.0,30.20,WSW,250,5.0,9.0,23,0.00,,,0.00,705,weatherlink.com 1.10,2013-03-13 17:10:00,
2013-03-13 11:25:00,65.7,22.0,30.20,SW,224,5.0,12.0,19,0.00,,,0.00,738,weatherlink.com 1.10,2013-03-13 17:25:00,
2013-03-13 11:40:00,66.6,22.0,30.20,WSW,258,7.0,10.0,18,0.00,,,0.00,766,weatherlink.com 1.10,2013-03-13 17:40:00,
2013-03-13 11:55:00,67.1,21.0,30.20,WSW,247,4.0,12.0,17,0.00,,,0.00,789,weatherlink.com 1.10,2013-03-13 17:55:00,
2013-03-13 12:10:00,67.7,21.0,30.19,WSW,240,9.0,16.0,17,0.00,,,0.00,812,weatherlink.com 1.10,2013-03-13 18:10:00,
2013-03-13 12:25:00,68.6,21.0,30.18,WSW,242,11.0,15.0,16,0.00,,,0.00,830,weatherlink.com 1.10,2013-03-13 18:25:00,
2013-03-13 12:40:00,68.9,21.0,30.17,SW,218,10.0,14.0,16,0.00,,,0.00,842,weatherlink.com 1.10,2013-03-13 18:40:00,
2013-03-13 12:55:00,69.5,20.0,30.16,SSW,204,11.0,17.0,15,0.00,,,0.00,851,weatherlink.com 1.10,2013-03-13 18:55:00,
2013-03-13 13:11:00,69.5,16.0,30.15,SSW,212,12.0,17.0,13,0.00,,,0.00,858,weatherlink.com 1.10,2013-03-13 19:11:00,
2013-03-13 13:26:00,69.3,18.0,30.14,SW,232,14.0,16.0,14,0.00,,,0.00,856,weatherlink.com 1.10,2013-03-13 19:26:00,
2013-03-13 13:41:00,70.0,19.0,30.14,SW,215,14.0,17.0,14,0.00,,,0.00,851,weatherlink.com 1.10,2013-03-13 19:41:00,
2013-03-13 13:56:00,70.3,19.0,30.13,SW,234,14.0,18.0,14,0.00,,,0.00,842,weatherlink.com 1.10,2013-03-13 19:56:00,
2013-03-13 14:11:00,70.5,17.0,30.12,SSW,194,7.0,17.0,13,0.00,,,0.00,830,weatherlink.com 1.10,2013-03-13 20:11:00,
2013-03-13 14:56:00,72.6,15.0,30.10,SSW,212,7.0,15.0,11,0.00,,,0.00,772,weatherlink.com 1.10,2013-03-13 20:56:00,
2013-03-13 15:26:00,73.2,11.0,30.10,SSW,197,8.0,18.0,9,0.00,,,0.00,710,weatherlink.com 1.10,2013-03-13 21:26:00,
2013-03-13 15:56:00,73.4,8.0,30.09,SW,233,8.0,16.0,8,0.00,,,0.00,631,weatherlink.com 1.10,2013-03-13 21:56:00,
2013-03-13 16:11:00,73.8,11.0,30.09,SW,225,9.0,15.0,9,0.00,,,0.00,592,weatherlink.com 1.10,2013-03-13 22:11:00,
2013-03-13 16:26:00,73.2,11.0,30.08,South,182,11.0,17.0,9,0.00,,,0.00,545,weatherlink.com 1.10,2013-03-13 22:26:00,
2013-03-13 16:41:00,73.7,11.0,30.08,SSW,209,11.0,13.0,9,0.00,,,0.00,496,weatherlink.com 1.10,2013-03-13 22:41:00,
2013-03-13 16:56:00,73.1,13.0,30.08,South,190,6.0,16.0,10,0.00,,,0.00,445,weatherlink.com 1.10,2013-03-13 22:56:00,
2013-03-13 17:26:00,73.6,11.0,30.07,SSW,201,1.0,9.0,9,0.00,,,0.00,341,weatherlink.com 1.10,2013-03-13 23:26:00,
2013-03-13 17:41:00,73.2,11.0,30.07,SW,223,6.0,10.0,9,0.00,,,0.00,281,weatherlink.com 1.10,2013-03-13 23:41:00,
2013-03-13 17:56:00,73.0,13.0,30.07,SSW,192,1.0,9.0,10,0.00,,,0.00,220,weatherlink.com 1.10,2013-03-13 23:56:00,
2013-03-13 18:11:00,72.4,13.0,30.07,SW,217,5.0,8.0,10,0.00,,,0.00,158,weatherlink.com 1.10,2013-03-14 00:11:00,
2013-03-13 18:26:00,72.1,12.0,30.07,SSW,211,4.0,8.0,10,0.00,,,0.00,98,weatherlink.com 1.10,2013-03-14 00:26:00,
2013-03-13 18:41:00,71.6,12.0,30.07,South,189,3.0,8.0,10,0.00,,,0.00,51,weatherlink.com 1.10,2013-03-14 00:41:00,
2013-03-13 18:56:00,70.7,14.0,30.07,South,187,5.0,9.0,11,0.00,,,0.00,16,weatherlink.com 1.10,2013-03-14 00:56:00,
2013-03-13 19:11:00,69.4,14.0,30.07,South,186,3.0,6.0,12,0.00,,,0.00,7,weatherlink.com 1.10,2013-03-14 01:11:00,
2013-03-13 19:41:00,66.3,14.0,30.08,South,186,2.0,3.0,13,0.00,,,0.00,0,weatherlink.com 1.10,2013-03-14 01:41:00,
2013-03-13 20:11:00,63.6,13.0,30.08,South,186,3.0,4.0,14,0.00,,,0.00,0,weatherlink.com 1.10,2013-03-14 02:11:00,
2013-03-13 20:26:00,62.9,13.0,30.08,South,186,3.0,4.0,14,0.00,,,0.00,0,weatherlink.com 1.10,2013-03-14 02:26:00,
2013-03-13 20:41:00,62.4,12.0,30.08,South,186,2.0,4.0,14,0.00,,,0.00,0,weatherlink.com 1.10,2013-03-14 02:41:00,
2013-03-13 20:56:00,61.8,12.0,30.08,South,186,4.0,4.0,14,0.00,,,0.00,0,weatherlink.com 1.10,2013-03-14 02:56:00,
2013-03-13 21:41:00,60.8,11.0,30.09,South,169,5.0,5.0,14,0.00,,,0.00,0,weatherlink.com 1.10,2013-03-14 03:41:00,
2013-03-13 21:56:00,60.4,11.0,30.10,SSE,158,5.0,6.0,14,0.00,,,0.00,0,weatherlink.com 1.10,2013-03-14 03:56:00,
2013-03-13 22:11:00,60.6,11.0,30.10,SSE,152,6.0,6.0,14,0.00,,,0.00,0,weatherlink.com 1.10,2013-03-14 04:11:00,
2013-03-13 22:26:00,60.5,11.0,30.11,SE,145,4.0,6.0,14,0.00,,,0.00,0,weatherlink.com 1.10,2013-03-14 04:26:00,
2013-03-13 22:41:00,60.2,11.0,30.11,SE,136,4.0,7.0,14,0.00,,,0.00,0,weatherlink.com 1.10,2013-03-14 04:41:00,
2013-03-13 22:56:00,60.6,9.0,30.11,SE,135,4.0,7.0,13,0.00,,,0.00,0,weatherlink.com 1.10,2013-03-14 04:56:00,
2013-03-13 23:11:00,60.5,9.0,30.11,SE,135,2.0,6.0,13,0.00,,,0.00,0,weatherlink.com 1.10,2013-03-14 05:11:00,
2013-03-13 23:26:00,60.1,9.0,30.11,SE,135,3.0,5.0,13,0.00,,,0.00,0,weatherlink.com 1.10,2013-03-14 05:26:00,
2013-03-13 23:41:00,59.8,10.0,30.11,SE,135,6.0,7.0,14,0.00,,,0.00,0,weatherlink.com 1.10,2013-03-14 05:41:00,
2013-03-13 23:56:00,61.2,10.0,30.11,SE,135,3.0,6.0,13,0.00,,,0.00,0,weatherlink.com 1.10,2013-03-14 05:56:00,